ONEWEB-0154 (48045 NORAD) Tracking and Keplerian Element Data

This shows tracking and keplerian element data for the satellite.

Feedback or suggestion? Click here.




ElementValue
Catalog48045
NameONEWEB-0154
Epoch Orbit189
Epoch Day173.91668981
Epoch Year2021
RAAN322.2548
Inclination87.7628
Eccentricity0.0006754
Argument of Perigee344.7958
Mean Anonmoly40.6223
Mean Motion13.73980156
Decay Rate1.5E-07
L11 48045U 21025D 21173.91668981 .00000015 00000-0 00000-0 0 9999
L22 48045 87.7628 322.2548 0006754 344.7958 40.6223 13.73980156 1897

Live tracking and technical data element details for ONEWEB-0154 (NORAD 48045). ONEWEB-0154 can be tracked NOW for your location showing map with azimuth and elevation plus other details from your city location.

Track the satellite on the map from your city or location and see movement details for azimuth, elevation, latitude, longitude, range, height, and movement on the map or in text.







IsCatalogInMostPopularTable: catalog: 48045, numindb: 40
Update: records affected: 1



GetName: 48045 ONEWEB-0154

Hit Count: updated at: Thu, 24 Jun 2021 03:06:29 GMT